{"data":{"norad_id":69871,"epoch":"2026-09-19T22:36:04.311648Z","epoch_age_seconds":65987,"freshness":"FRESH","line1":"1 69871U 26156C   26262.94171657  .00000782  00000+0  76853-4 0  9998","line2":"2 69871  97.7135 162.2028 0004192 352.9338   7.1823 14.94926923 10949","mean_motion":14.94926923,"eccentricity":0.0004192,"inclination_deg":97.7135,"raan_deg":162.2028,"arg_perigee_deg":352.9338,"mean_anomaly_deg":7.1823,"bstar":7.6853e-5,"rev_number":1094,"period_min":96.325778728383,"perigee_km":579.68164369798,"apogee_km":585.5175252504,"semimajor_km":6960.7365844742,"source":"CELESTRAK","updated_at":"2026-09-20T09:00:34.755289Z"}}